Location: Unspecified
(35.3200°S, 0.0000°E)
Time: 06:03:13
(UTC+00:00)

NOAA 16 DEB - Visible Passes

Search period start: 04 April 2026 00:00
Search period end: 14 April 2026 00:00
Orbit: 744 x 774 km, 99.0° (Epoch: 28 March)

Date Brightness Start Highest point End Pass type
(mag) Time Alt. Az. Time Alt. Az. Time Alt. Az.
4 Apr ? 02:58:55 10° SE 03:01:55 19° E 03:01:55 19° E visible
4 Apr ? 04:36:38 10° S 04:41:24 41° WSW 04:41:58 40° W visible
5 Apr ? 03:57:48 10° SSE 04:02:47 78° E 04:02:47 78° E visible
5 Apr ? 05:39:42 10° SW 05:40:57 11° WSW 05:42:12 10° WSW visible
6 Apr ? 03:19:42 10° SE 03:23:34 30° E 03:23:34 30° E visible
6 Apr ? 04:58:39 10° SSW 05:02:48 26° WSW 05:03:37 25° W visible
7 Apr ? 02:43:18 10° ESE 02:44:21 12° E 02:44:21 12° E visible
7 Apr ? 04:19:23 10° S 04:24:23 63° WSW 04:24:23 63° WSW visible
8 Apr ? 03:40:51 10° SSE 03:45:09 48° ESE 03:45:09 48° ESE visible
8 Apr ? 05:21:00 10° SSW 05:24:05 16° WSW 05:25:13 15° W visible
9 Apr ? 03:03:12 10° SE 03:05:54 19° ESE 03:05:54 19° ESE visible
9 Apr ? 04:41:08 10° S 04:45:47 38° WSW 04:45:58 38° WSW visible
10 Apr ? 04:02:11 10° SSE 04:06:42 71° SSE 04:06:42 71° SSE visible
11 Apr ? 03:23:57 10° SE 03:27:25 30° ESE 03:27:25 30° ESE visible
11 Apr ? 05:03:04 10° SSW 05:07:04 24° WSW 05:07:28 24° WSW visible
12 Apr ? 02:47:13 10° ESE 02:48:08 12° ESE 02:48:08 12° ESE visible
12 Apr ? 04:23:40 10° S 04:28:11 56° SW 04:28:11 56° SW visible
13 Apr ? 03:45:01 10° SSE 03:48:53 45° ESE 03:48:53 45° ESE visible
13 Apr ? 05:25:23 10° SSW 05:28:14 15° WSW 05:28:56 15° WSW visible
